Location: Newark
(49.8969°N, 3.3422°E)
Time: 22:55:25
(UTC+00:00)

Tiros 1 - Pass Details

Date: 22 January 2021
Orbit: 630 x 664 km, 48.4° (Epoch: 08 March)

Event Time Altitude Azimuth Distance (km) Brightness Sun altitude
Rises 18:43:39 0° 228° (SW) 2,919 11.3 -22.0°
Reaches altitude 10° 18:46:06 10° 220° (SW) 2,009 10.2 -22.4°
Enters shadow 18:50:01 36° 163° (SSE) 994 7.9 -23.0°
